This demonstration page uses our WeatherBlox Daily Observations layout. Learn more.

Left ArrowRight Arrow

36.17497, -115.13722

Hourly Observations for August 28, 2021

Temp ( °F °C ) Dew Point ( °F °C ) Humidity (%) Winds ( mph kmh ) Pressure ( in mb ) Visibility ( mi km ) Precip ( " mm )
12:53 am 00:53 Clear 87 30.6 33 0.6 14 14 NNW 6 9 29.69 1005 10 16 0.00 0.00
1:53 am 01:53 Clear 85 29.4 28 -2.2 13 13 W 5 7 29.68 1005 10 16 0.00 0.00
2:53 am 02:53 Clear 84 28.9 28 -2.2 13 13 NW 7 11 29.69 1005 10 16 0.00 0.00
3:53 am 03:53 Clear 84 28.9 29 -1.7 13 13 W 6 9 29.70 1006 10 16 0.00 0.00
4:53 am 04:53 Clear 86 30 25 -3.9 11 11 WNW 12 19 29.70 1006 10 16 0.00 0.00
5:53 am 05:53 Clear 84 28.9 27 -2.8 12 12 WNW 8 13 29.72 1007 10 16 0.00 0.00
6:53 am 06:53 Sunny 83 28.3 31 -0.6 15 15 Calm 29.75 1008 10 16 0.00 0.00
7:53 am 07:53 Sunny 86 30 35 1.7 16 16 NNW 5 7 29.78 1009 10 16 0.00 0.00
8:53 am 08:53 Sunny 92 33.3 29 -1.7 10 10 NNW 7 11 29.78 1009 10 16 0.00 0.00
9:53 am 09:53 Sunny 97 36.1 27 -2.8 8 8 VRB 3 6 29.79 1009 10 16 0.00 0.00
10:53 am 10:53 Sunny 98 36.7 28 -2.2 8 8 ESE 5 7 29.79 1009 10 16 0.00 0.00
11:53 am 11:53 Sunny 101 38.3 28 -2.2 8 8 ESE 7 11 29.78 1008 10 16 0.00 0.00
12:53 pm 12:53 Sunny 104 40 29 -1.7 7 7 SE 8 13 29.75 1008 10 16 0.00 0.00
1:53 pm 13:53 Sunny 107 41.7 34 1.1 8 8 SSW 6 9 29.73 1007 10 16 0.00 0.00
2:53 pm 14:53 Sunny 108 42.2 35 1.7 8 8 SE 14 22 29.70 1006 10 16 0.00 0.00
3:53 pm 15:53 Sunny 108 42.2 37 2.8 9 9 VRB 5 7 29.68 1005 10 16 0.00 0.00
4:53 pm 16:53 Sunny 108 42.2 38 3.3 9 9 SSE 13 20 29.67 1005 10 16 0.00 0.00
5:17 pm 17:17 Sunny 108 42.2 41 5 10 10 ESE 15 24 29.47 998 10 16 0.00 0.00
5:53 pm 17:53 Sunny 107 41.7 41 5 11 11 S 5 7 29.66 1004 10 16 0.00 0.00
6:53 pm 18:53 Sunny 106 41.1 38 3.3 10 10 SW 9 15 29.67 1005 10 16 0.00 0.00
7:53 pm 19:53 Clear 103 39.4 38 3.3 11 11 SW 5 7 29.68 1005 10 16 0.00 0.00
8:53 pm 20:53 Clear 101 38.3 37 2.8 11 11 WSW 7 11 29.70 1006 10 16 0.00 0.00
9:53 pm 21:53 Clear 99 37.2 37 2.8 12 12 WNW 3 6 29.71 1006 10 16 0.00 0.00
10:53 pm 22:53 Clear 92 33.3 39 3.9 16 16 Calm 29.73 1007 10 16 0.00 0.00
11:53 pm 23:53 Clear 91 32.8 40 4.4 17 17 SE 6 9 29.74 1007 10 16 0.00 0.00

Powered by AerisWeather